Regional Weather Roundup
Issued by NWS Charleston, SC

Current Version | Previous Version | Graphics & Text | Print | Product List | Glossary On
Versions: 1 2 3 4 5 6 7 8 9 10 11 12 13 14 15 16 17 18 19 20 21 22 23 24 25 26 27 28 29 30 31 32 33 34 35 36 37 38 39 40 41 42 43 44 45 46 47
000
ASUS42 KCHS 281327
RWRCHS

REGIONAL WEATHER ROUNDUP
NATIONAL WEATHER SERVICE CHARLESTON SC
900 AM EDT TUE MAR 28 2017

NOTE: "FAIR" INDICATES FEW OR NO CLOUDS BELOW 12,000 FEET WITH NO
SIGNIFICANT WEATHER AND/OR OBSTRUCTIONS TO VISIBILITY.

NOT ALL STATIONS ARE QUALITY CONTROLLED. USE DATA WITH CAUTION...
ESPECIALLY DEWPOINT OBSERVATIONS.

SCZ027-030-031-034>040-042>050-281400-
...SOUTHEAST SOUTH CAROLINA...

CITY           SKY/WX    TMP DP  RH WIND       PRES   REMARKS
N CHARLESTON   MOSUNNY   69  61  75 SW12      30.01S
WATERFRONT PRK   N/A     66  63  90 SW7       30.00S
JOHNS ISLAND   FAIR      70  64  83 SW10      30.03R
PINOPOLIS        N/A     66  63  88 SW6       29.91R
MONCKS CORNER  FAIR      68  61  77 SW12      30.01S
SUMMERVILLE    FAIR      68  61  77 SW6       30.02S
BEAUFORT MCAS  SUNNY     70  63  78 SW9       30.03R
BEAUFORT ARPT  FAIR      70  61  73 SW6       30.03R
HILTON HEAD IS SUNNY    N/A N/A N/A SW12      30.03R
WALTERBORO     MOSUNNY   68  61  77 SW9       30.02S
ALLENDALE      FAIR      68  59  73 SW6       30.00S

...SOUTHERN MIDLANDS AND PEE DEE...

CITY           SKY/WX    TMP DP  RH WIND       PRES   REMARKS
GEORGETOWN     FAIR      70  61  73 SW14      30.02S
KINGSTREE      PTSUNNY   68  59  73 S10       30.00S
ORANGEBURG     MOSUNNY   66  59  78 SW10      30.00R
BARNWELL       FAIR      70  61  73 SW10      30.01S
AIKEN          FAIR      64  55  72 SW7       30.02S
MANNING        FAIR      66  59  77 SW9       30.00S
COLUMBIA       CLOUDY    67  57  70 SW8       29.97S
SUMTER         MOSUNNY   66  58  77 SW9       29.96S
FLORENCE       PTSUNNY   64  63  96 MISG      29.99S
MYRTLE BEACH   MOSUNNY   70  61  73 SW9G20    30.00F
N MYRTLE BEACH MOSUNNY   66  61  84 SW12      29.99F

$$

GAZ063-065-086>088-099>101-113>116-118-119-134>141-150-281400-
...SOUTHEAST GEORGIA...

CITY           SKY/WX    TMP DP  RH WIND       PRES   REMARKS
SAVANNAH ARPT  MOSUNNY   68  58  70 W12       30.04R
HUNTER AAF     SUNNY     68  63  83 SW8       30.01R
FORT STEWART   SUNNY     68  59  73 SW7       30.03R
STATESBORO     SUNNY     69  62  78 SW12      30.03S
SYLVANIA       SUNNY    N/A N/A N/A W6        30.04S
CLAXTON        FAIR     N/A N/A N/A S3        30.05R

...CSRA...CENTRAL AND FAR SOUTHEAST GEORGIA...

CITY           SKY/WX    TMP DP  RH WIND       PRES   REMARKS
THOMSON        CLOUDY    65  58  79 W6        30.04R
AUGUSTA-BUSH   SUNNY     68  59  73 SW12      29.99R
AUGUSTA-DANIEL MOSUNNY   66  56  70 S7        29.99S
SWAINSBORO     CLOUDY    66  61  82 W9        30.05R
VIDALIA        SUNNY     68  61  77 SW9       30.05R
EASTMAN        FAIR      68  59  73 W6        30.07R
HAZLEHURST     PTSUNNY   67  65  94 SW5       30.05R
ALMA           SUNNY     65  61  87 SW6       30.06R
WAYCROSS       SUNNY     71  65  83 SW5       30.06S
JESUP          FAIR      68  59  73 W3        30.06S
BAXLEY         FAIR      68  68 100 SW5       30.05S
BRUNSWICK      SUNNY     70  63  78 SW8       30.06R
SAINT SIMONS   SUNNY     67  61  81 SW9       30.05R

$$

SCZ027-028-034-036>038-045-046-048>050-GAZ119-141-281400-
...LAKE AND SUPPLEMENTAL COASTAL OBSERVATIONS...

STATION/POSITION TIME  TEMP    WIND        PRES    WAVE   SWELL
                       AIR SEA DIR/SP/G            HT/PER HT/PER/DIR
                 (UTC) (F)     (DEG/KT/KT) (MB)    (FT/S) (FT/S/D)
WINYAH BAY       1245   68     220/ 11     1016.0S
LAKE MURRAY      1220   62     200/  5/  6 1014.6
ACE BASIN NERRS  1245   66     210/  1     1017.0R
FORT PULASKI     1300   68 64  250/  6/ 11 1017.4
SAPELO ISLAND    1300   68     230/  9     1017.0

$$

ANZ835-935-AMZ111-154-330-350-352-354-370-450-454-472-281400-
...C-MAN AND BUOY OBSERVATIONS...

STATION/POSITION TIME  TEMP    WIND        PRES    WAVE   SWELL
                       AIR SEA DIR/SP/G            HT/PER HT/PER/DIR
                 (UTC) (F)     (DEG/KT/KT) (MB)    (FT/S) (FT/S/D)
BUOY 41004       1250   71 70  240/ 16/ 17 1016.2S   6/10   5/130/10
BUOY 41008       1250   65 63  210/  8/  8 1016.9R   4/11   3/ 70/11
FOLLY BEACH CMAN 1300   66     210/ 11/ 12 1017.1S
CAPERS NEARSHORE 1308   64     230/ 10/ 14 1016.3S
FRIPP NEARSHORE  1308   64 62  200/  8/ 10 1016.6R


STATION/POSITION TIME  TEMP    WIND        PRES    WAVE   SWELL
                       AIR SEA DIR/SP/G            HT/PER HT/PER/DIR
                 (UTC) (F)     (DEG/KT/KT) (MB)    (FT/S) (FT/S/D)
5E ST. MARYS GA  1300      66                N/A     4/11   2/120/11
FRYING PAN BUOY  1250   72 75  250/ 17/ 21 1016.3R   5/10   5/140/10
BUOY 41025       1250   72 75  230/ 16/ 19 1015.9S   5/10   3/130/10
CAPE LOOKOUT NC  1300   69     230/  7/ 11 1015.9R
BUOY 41002       1250   69 72  300/  2/  4 1018.4R   6/10   7/130/10
BUOY 41010       NOT AVBL
ST AUGUSTINE FL  1300   69 67  240/  3/  5 1019.0R


$$




USA.gov is the U.S. government's official web portal to all federal, state and local government web resources and services.